Location: Unspecified
(0.0000°N, 0.0000°E)
Time: 22:46:44
(UTC+00:00)

Magion-4 - Visible Passes

Search period start: 08 December 2023 00:00
Search period end: 18 December 2023 00:00
Orbit: 17067 x 175447 km, 70.3° (Epoch: 09 April)

Date Brightness Start Highest point End Pass type
(mag) Time Alt. Az. Time Alt. Az. Time Alt. Az.
08 Dec ? 17:24:12 10° E 22:39:29 79° SSE 00:09:00 10° NNW visible
10 Dec ? 16:13:22 10° NE 21:24:49 47° N 02:21:42 10° NW visible
11 Dec ? 16:37:20 10° ENE 21:56:12 67° N 03:05:54 10° WNW visible
12 Dec ? 17:33:47 10° E 21:23:48 46° SE 00:09:34 10° S visible
13 Dec ? 15:06:44 10° NNE 20:24:56 28° N 00:49:58 10° NNW visible
14 Dec ? 16:03:47 10° NE 21:16:45 51° N 02:17:05 10° NW visible
15 Dec ? 16:27:46 10° ENE 21:48:05 72° N 02:59:55 10° W visible
